Time,TemperatureF,DewpointF,PressureIn,WindDirection,WindDirectionDegrees,WindSpeedMPH,WindSpeedGustMPH,Humidity,HourlyPrecipIn,Conditions,Clouds,dailyrainin,SoftwareType,DateUTC
2013-02-09 00:05:00,37.9,32.3,30.03,North,0,0.0,0.0,80,0.00,,,0.00,pywws,2013-02-09 00:05:00,
2013-02-09 00:11:00,37.9,32.0,30.03,NNE,22,0.0,0.0,79,0.00,,,0.00,pywws,2013-02-09 00:11:00,
2013-02-09 00:17:00,37.8,31.8,30.03,NE,45,0.0,0.0,79,0.00,,,0.00,pywws,2013-02-09 00:17:00,
2013-02-09 00:25:00,37.6,31.7,30.04,WNW,292,0.0,0.0,79,0.00,,,0.00,pywws,2013-02-09 00:25:00,
2013-02-09 00:30:00,37.4,31.8,30.03,SW,225,0.0,0.0,80,0.00,,,0.00,pywws,2013-02-09 00:30:00,
2013-02-09 00:37:00,37.2,31.6,30.03,NNW,338,0.0,0.0,80,0.00,,,0.00,pywws,2013-02-09 00:37:00,
2013-02-09 00:45:00,37.0,31.8,30.03,NE,45,0.0,0.0,81,0.00,,,0.00,pywws,2013-02-09 00:45:00,
2013-02-09 00:53:00,37.0,31.8,30.03,NE,45,0.0,0.0,81,0.00,,,0.00,pywws,2013-02-09 00:53:00,
2013-02-09 00:58:00,37.0,32.1,30.03,North,0,0.0,0.0,82,0.00,,,0.00,pywws,2013-02-09 00:58:00,
2013-02-09 01:09:00,37.0,32.1,30.03,North,0,0.0,0.0,82,0.00,,,0.00,pywws,2013-02-09 01:09:00,
2013-02-09 01:16:00,37.0,32.1,30.03,WNW,292,0.0,0.0,82,0.00,,,0.00,pywws,2013-02-09 01:16:00,
2013-02-09 01:21:00,37.0,32.1,30.03,SE,135,0.0,0.0,82,0.00,,,0.00,pywws,2013-02-09 01:21:00,
2013-02-09 01:26:00,37.0,32.1,30.03,NNE,22,0.0,0.0,82,0.00,,,0.00,pywws,2013-02-09 01:26:00,
2013-02-09 01:32:00,37.0,32.1,30.03,NE,45,0.0,0.0,82,0.00,,,0.00,pywws,2013-02-09 01:32:00,
2013-02-09 01:37:00,37.0,32.1,30.03,NE,45,0.0,0.0,82,0.00,,,0.00,pywws,2013-02-09 01:37:00,
2013-02-09 01:42:00,37.0,32.1,30.03,North,0,0.0,0.0,82,0.00,,,0.00,pywws,2013-02-09 01:42:00,
2013-02-09 01:49:00,37.0,32.1,30.03,North,0,0.0,0.0,82,0.00,,,0.00,pywws,2013-02-09 01:49:00,
2013-02-09 01:54:00,36.9,32.2,30.03,North,0,0.0,0.0,83,0.00,,,0.00,pywws,2013-02-09 01:54:00,
2013-02-09 01:59:00,36.9,32.2,30.03,ENE,68,0.0,0.0,83,0.00,,,0.00,pywws,2013-02-09 01:59:00,
2013-02-09 02:01:00,36.9,32.2,30.04,ENE,68,0.0,0.0,83,0.00,,,0.00,pywws,2013-02-09 02:01:00,
2013-02-09 02:05:00,36.7,32.0,30.04,NE,45,0.0,0.0,83,0.00,,,0.00,pywws,2013-02-09 02:05:00,
2013-02-09 02:10:00,36.9,32.2,30.04,ENE,68,0.0,0.0,83,0.00,,,0.00,pywws,2013-02-09 02:10:00,
2013-02-09 02:17:00,36.3,31.7,30.04,NW,315,0.0,0.0,83,0.00,,,0.00,pywws,2013-02-09 02:17:00,
2013-02-09 02:25:00,36.3,32.0,30.04,NNE,22,0.0,0.0,84,0.00,,,0.00,pywws,2013-02-09 02:25:00,
2013-02-09 02:30:00,36.0,31.6,30.04,East,90,0.0,0.0,84,0.00,,,0.00,pywws,2013-02-09 02:30:00,
2013-02-09 02:35:00,35.8,31.4,30.03,NE,45,0.0,0.0,84,0.00,,,0.00,pywws,2013-02-09 02:35:00,
2013-02-09 02:41:00,35.8,31.4,30.03,NE,45,0.0,0.0,84,0.00,,,0.00,pywws,2013-02-09 02:41:00,
2013-02-09 02:45:00,35.8,31.7,30.04,WSW,248,0.0,0.0,85,0.00,,,0.00,pywws,2013-02-09 02:45:00,
2013-02-09 02:49:00,35.8,31.7,30.04,WSW,248,0.0,0.0,85,0.00,,,0.00,pywws,2013-02-09 02:49:00,
2013-02-09 02:53:00,35.8,31.7,30.03,North,0,0.0,0.0,85,0.00,,,0.00,pywws,2013-02-09 02:53:00,
2013-02-09 02:57:00,35.8,31.7,30.04,East,90,0.0,0.0,85,0.00,,,0.00,pywws,2013-02-09 02:57:00,
2013-02-09 03:01:00,35.6,31.5,30.04,NW,315,0.0,0.0,85,0.00,,,0.00,pywws,2013-02-09 03:01:00,
2013-02-09 03:04:00,35.6,31.5,30.03,NW,315,0.0,0.0,85,0.00,,,0.00,pywws,2013-02-09 03:04:00,
2013-02-09 03:08:00,35.6,31.5,30.03,NW,315,0.0,0.0,85,0.00,,,0.00,pywws,2013-02-09 03:08:00,
2013-02-09 03:22:00,35.4,31.4,30.03,West,270,0.0,0.0,85,0.00,,,0.00,pywws,2013-02-09 03:22:00,
2013-02-09 03:29:00,35.2,31.2,30.03,NW,315,0.0,0.0,85,0.00,,,0.00,pywws,2013-02-09 03:29:00,
2013-02-09 03:34:00,35.2,31.2,30.02,NW,315,0.0,0.0,85,0.00,,,0.00,pywws,2013-02-09 03:34:00,
2013-02-09 03:39:00,35.2,31.5,30.02,NW,315,0.0,0.0,86,0.00,,,0.00,pywws,2013-02-09 03:39:00,
2013-02-09 03:45:00,35.1,31.3,30.02,NW,315,0.0,0.0,86,0.00,,,0.00,pywws,2013-02-09 03:45:00,
2013-02-09 03:49:00,34.9,31.1,30.02,East,90,0.0,0.0,86,0.00,,,0.00,pywws,2013-02-09 03:49:00,
2013-02-09 03:50:00,34.9,31.1,30.02,East,90,0.0,0.0,86,0.00,,,0.00,pywws,2013-02-09 03:50:00,
2013-02-09 03:53:00,34.7,30.9,30.02,East,90,0.0,0.0,86,0.00,,,0.00,pywws,2013-02-09 03:53:00,
2013-02-09 03:55:00,34.9,31.1,30.02,East,90,0.0,0.0,86,0.00,,,0.00,pywws,2013-02-09 03:55:00,
2013-02-09 03:57:00,34.5,31.1,30.01,East,90,0.0,0.0,87,0.00,,,0.00,pywws,2013-02-09 03:57:00,
2013-02-09 04:01:00,34.5,31.1,30.02,East,90,0.0,0.0,87,0.00,,,0.00,pywws,2013-02-09 04:01:00,
2013-02-09 04:05:00,34.5,31.1,30.01,East,90,0.0,0.0,87,0.00,,,0.00,pywws,2013-02-09 04:05:00,
2013-02-09 04:09:00,34.2,30.7,30.02,East,90,0.0,0.0,87,0.00,,,0.00,pywws,2013-02-09 04:09:00,
2013-02-09 04:13:00,34.2,31.0,30.01,North,0,0.0,0.0,88,0.00,,,0.00,pywws,2013-02-09 04:13:00,
2013-02-09 04:17:00,34.3,31.2,30.02,North,0,0.0,0.0,88,0.00,,,0.00,pywws,2013-02-09 04:17:00,
2013-02-09 04:29:00,34.5,31.3,30.02,NW,315,0.0,0.0,88,0.00,,,0.00,pywws,2013-02-09 04:29:00,
2013-02-09 04:33:00,34.9,31.7,30.02,North,0,0.0,0.0,88,0.00,,,0.00,pywws,2013-02-09 04:33:00,
2013-02-09 04:34:00,34.9,31.7,30.02,North,0,0.0,0.0,88,0.00,,,0.00,pywws,2013-02-09 04:34:00,
2013-02-09 04:39:00,34.9,31.7,30.02,North,0,0.0,0.0,88,0.00,,,0.00,pywws,2013-02-09 04:39:00,
2013-02-09 04:45:00,34.9,31.7,30.02,North,0,0.0,0.0,88,0.00,,,0.00,pywws,2013-02-09 04:45:00,
2013-02-09 04:53:00,34.5,31.3,30.02,NW,315,0.0,0.0,88,0.00,,,0.00,pywws,2013-02-09 04:53:00,
2013-02-09 04:57:00,34.5,31.3,30.02,NE,45,0.0,0.0,88,0.00,,,0.00,pywws,2013-02-09 04:57:00,
2013-02-09 05:01:00,34.5,31.3,30.02,NW,315,0.0,0.0,88,0.00,,,0.00,pywws,2013-02-09 05:01:00,
2013-02-09 05:09:00,34.5,31.3,30.01,NE,45,0.0,0.0,88,0.00,,,0.00,pywws,2013-02-09 05:09:00,
2013-02-09 05:15:00,34.5,31.6,30.01,NW,315,0.0,0.0,89,0.00,,,0.00,pywws,2013-02-09 05:15:00,
2013-02-09 05:20:00,34.5,31.6,30.01,NW,315,0.0,0.0,89,0.00,,,0.00,pywws,2013-02-09 05:20:00,
2013-02-09 05:25:00,34.7,31.8,30.01,NW,315,0.0,0.0,89,0.00,,,0.00,pywws,2013-02-09 05:25:00,
2013-02-09 05:30:00,34.7,31.5,30.01,NW,315,0.0,0.0,88,0.00,,,0.00,pywws,2013-02-09 05:30:00,
2013-02-09 05:37:00,34.7,31.8,30.01,NW,315,0.0,0.0,89,0.00,,,0.00,pywws,2013-02-09 05:37:00,
2013-02-09 05:45:00,34.9,31.7,30.01,NW,315,0.0,0.0,88,0.00,,,0.00,pywws,2013-02-09 05:45:00,
2013-02-09 05:49:00,34.9,31.7,30.01,NW,315,0.0,0.0,88,0.00,,,0.00,pywws,2013-02-09 05:49:00,
2013-02-09 05:53:00,34.9,31.7,30.01,NW,315,0.0,0.0,88,0.00,,,0.00,pywws,2013-02-09 05:53:00,
2013-02-09 05:57:00,34.9,31.7,30.01,NW,315,0.0,0.0,88,0.00,,,0.00,pywws,2013-02-09 05:57:00,
2013-02-09 06:01:00,35.1,31.9,30.01,SW,225,0.0,0.0,88,0.00,,,0.00,pywws,2013-02-09 06:01:00,
2013-02-09 06:05:00,35.1,31.9,30.01,SW,225,0.0,0.0,88,0.00,,,0.00,pywws,2013-02-09 06:05:00,
2013-02-09 06:09:00,35.1,31.9,30.01,NW,315,0.0,0.0,88,0.00,,,0.00,pywws,2013-02-09 06:09:00,
2013-02-09 06:13:00,35.1,31.9,30.01,SE,135,0.0,0.0,88,0.00,,,0.00,pywws,2013-02-09 06:13:00,
2013-02-09 06:17:00,35.1,31.9,30.01,North,0,0.0,0.0,88,0.00,,,0.00,pywws,2013-02-09 06:17:00,
2013-02-09 06:21:00,35.1,31.9,30.01,North,0,0.0,0.0,88,0.00,,,0.00,pywws,2013-02-09 06:21:00,
2013-02-09 06:33:00,35.1,31.9,30.01,NW,315,0.0,0.0,88,0.00,,,0.00,pywws,2013-02-09 06:33:00,
2013-02-09 06:39:00,35.1,31.9,30.01,East,90,0.0,0.0,88,0.00,,,0.00,pywws,2013-02-09 06:39:00,
2013-02-09 06:45:00,35.1,32.2,30.01,East,90,0.0,0.0,89,0.00,,,0.00,pywws,2013-02-09 06:45:00,
2013-02-09 06:53:00,34.9,32.0,30.01,NE,45,0.0,0.0,89,0.00,,,0.00,pywws,2013-02-09 06:53:00,
2013-02-09 07:01:00,35.1,32.2,30.01,NW,315,0.0,0.0,89,0.00,,,0.00,pywws,2013-02-09 07:01:00,
2013-02-09 07:05:00,35.1,32.4,30.01,East,90,0.0,0.0,90,0.00,,,0.00,pywws,2013-02-09 07:05:00,
2013-02-09 07:06:00,35.1,32.4,30.01,East,90,0.0,0.0,90,0.00,,,0.00,pywws,2013-02-09 07:06:00,
2013-02-09 07:09:00,35.2,32.3,30.01,SE,135,0.0,0.0,89,0.00,,,0.00,pywws,2013-02-09 07:09:00,
2013-02-09 07:11:00,35.1,32.4,30.01,East,90,0.0,0.0,90,0.00,,,0.00,pywws,2013-02-09 07:11:00,
2013-02-09 07:13:00,35.2,32.6,30.01,East,90,0.0,0.0,90,0.00,,,0.00,pywws,2013-02-09 07:13:00,
2013-02-09 07:20:00,35.2,32.6,30.01,East,90,0.0,0.0,90,0.00,,,0.00,pywws,2013-02-09 07:20:00,
2013-02-09 07:25:00,35.2,32.6,30.01,East,90,0.0,0.0,90,0.00,,,0.00,pywws,2013-02-09 07:25:00,
2013-02-09 07:33:00,35.2,32.6,30.01,East,90,0.0,0.0,90,0.00,,,0.00,pywws,2013-02-09 07:33:00,
2013-02-09 07:41:00,35.2,32.6,30.01,East,90,0.0,0.0,90,0.00,,,0.00,pywws,2013-02-09 07:41:00,
2013-02-09 07:49:00,35.2,32.6,30.01,NE,45,0.0,0.0,90,0.00,,,0.00,pywws,2013-02-09 07:49:00,
2013-02-09 07:57:00,35.4,32.8,30.01,SE,135,0.0,0.0,90,0.00,,,0.00,pywws,2013-02-09 07:57:00,
2013-02-09 08:01:00,35.4,32.8,30.01,NE,45,0.0,0.0,90,0.00,,,0.00,pywws,2013-02-09 08:01:00,
2013-02-09 08:05:00,35.4,32.8,30.01,SE,135,0.0,0.0,90,0.00,,,0.00,pywws,2013-02-09 08:05:00,
2013-02-09 08:10:00,35.4,32.8,30.01,NE,45,0.0,0.0,90,0.00,,,0.00,pywws,2013-02-09 08:10:00,
2013-02-09 08:17:00,35.6,33.0,30.02,South,180,0.0,0.0,90,0.00,,,0.00,pywws,2013-02-09 08:17:00,
2013-02-09 08:22:00,36.1,33.5,30.01,North,0,0.0,0.0,90,0.00,,,0.00,pywws,2013-02-09 08:22:00,
2013-02-09 08:29:00,36.1,33.5,30.01,North,0,0.0,0.0,90,0.00,,,0.00,pywws,2013-02-09 08:29:00,
2013-02-09 08:37:00,36.5,33.6,30.02,SE,135,0.0,0.0,89,0.00,,,0.00,pywws,2013-02-09 08:37:00,
2013-02-09 08:45:00,36.7,33.7,30.02,NE,45,0.0,0.0,89,0.00,,,0.00,pywws,2013-02-09 08:45:00,
2013-02-09 08:49:00,36.9,33.9,30.01,SE,135,0.0,0.0,89,0.00,,,0.00,pywws,2013-02-09 08:49:00,
2013-02-09 08:53:00,36.9,33.9,30.01,SE,135,0.0,0.0,89,0.00,,,0.00,pywws,2013-02-09 08:53:00,
2013-02-09 08:57:00,36.9,33.9,30.02,NE,45,0.0,0.0,89,0.00,,,0.00,pywws,2013-02-09 08:57:00,
2013-02-09 08:58:00,36.9,33.9,30.02,NE,45,0.0,0.0,89,0.00,,,0.00,pywws,2013-02-09 08:58:00,
2013-02-09 09:01:00,37.0,34.1,30.02,South,180,0.0,0.0,89,0.00,,,0.00,pywws,2013-02-09 09:01:00,
2013-02-09 09:05:00,37.0,34.1,30.02,South,180,0.0,0.0,89,0.00,,,0.00,pywws,2013-02-09 09:05:00,
2013-02-09 09:09:00,37.2,34.3,30.02,SE,135,0.0,0.0,89,0.00,,,0.00,pywws,2013-02-09 09:09:00,
2013-02-09 09:13:00,37.2,34.3,30.02,SE,135,0.0,0.0,89,0.00,,,0.00,pywws,2013-02-09 09:13:00,
2013-02-09 09:18:00,37.2,34.3,30.02,SE,135,0.0,0.0,89,0.00,,,0.00,pywws,2013-02-09 09:18:00,
2013-02-09 09:24:00,37.2,34.3,30.02,NE,45,0.0,0.0,89,0.00,,,0.00,pywws,2013-02-09 09:24:00,
2013-02-09 09:28:00,37.6,34.6,30.02,SE,135,0.0,0.0,89,0.00,,,0.00,pywws,2013-02-09 09:28:00,
2013-02-09 09:36:00,37.8,34.8,30.02,SE,135,0.0,0.0,89,0.00,,,0.00,pywws,2013-02-09 09:36:00,
2013-02-09 09:41:00,37.9,35.0,30.02,NW,315,0.0,0.0,89,0.00,,,0.00,pywws,2013-02-09 09:41:00,
2013-02-09 09:46:00,37.9,35.0,30.02,NW,315,0.0,0.0,89,0.00,,,0.00,pywws,2013-02-09 09:46:00,
2013-02-09 09:51:00,38.5,35.5,30.02,NW,315,0.0,0.0,89,0.00,,,0.00,pywws,2013-02-09 09:51:00,
2013-02-09 09:53:00,38.5,35.5,30.02,SW,225,0.0,0.0,89,0.00,,,0.00,pywws,2013-02-09 09:53:00,
2013-02-09 09:57:00,38.5,35.5,30.02,SW,225,0.0,0.0,89,0.00,,,0.00,pywws,2013-02-09 09:57:00,
2013-02-09 10:09:00,38.5,35.2,30.01,West,270,0.0,0.0,88,0.00,,,0.00,pywws,2013-02-09 10:09:00,
2013-02-09 10:15:00,38.5,35.5,30.01,SE,135,0.0,0.0,89,0.00,,,0.00,pywws,2013-02-09 10:15:00,
2013-02-09 10:20:00,38.7,35.7,30.01,NE,45,0.0,0.0,89,0.00,,,0.00,pywws,2013-02-09 10:20:00,
2013-02-09 10:25:00,38.8,35.6,30.01,North,0,0.0,0.0,88,0.00,,,0.00,pywws,2013-02-09 10:25:00,
2013-02-09 10:30:00,38.7,35.4,30.01,NE,45,0.0,0.0,88,0.00,,,0.00,pywws,2013-02-09 10:30:00,
2013-02-09 10:36:00,38.8,35.9,30.01,NW,315,0.0,0.0,89,0.00,,,0.00,pywws,2013-02-09 10:36:00,
2013-02-09 10:41:00,38.8,35.9,30.01,North,0,0.0,0.0,89,0.00,,,0.00,pywws,2013-02-09 10:41:00,
2013-02-09 10:49:00,38.8,35.9,30.01,North,0,0.0,0.0,89,0.00,,,0.00,pywws,2013-02-09 10:49:00,
2013-02-09 10:53:00,39.0,36.1,30.01,NW,315,0.0,0.0,89,0.00,,,0.00,pywws,2013-02-09 10:53:00,
2013-02-09 10:54:00,39.0,36.1,30.01,NNW,338,0.0,0.0,89,0.00,,,0.00,pywws,2013-02-09 10:54:00,
2013-02-09 10:57:00,39.0,36.1,30.01,SW,225,0.0,0.0,89,0.00,,,0.00,pywws,2013-02-09 10:57:00,
2013-02-09 11:01:00,39.0,36.1,30.01,NW,315,0.0,0.0,89,0.00,,,0.00,pywws,2013-02-09 11:01:00,
2013-02-09 11:05:00,39.0,36.1,30.01,SW,225,0.0,0.0,89,0.00,,,0.00,pywws,2013-02-09 11:05:00,
2013-02-09 11:09:00,39.2,35.9,30.00,North,0,0.0,0.0,88,0.00,,,0.00,pywws,2013-02-09 11:09:00,
2013-02-09 11:13:00,39.0,36.1,30.01,SW,225,0.0,0.0,89,0.00,,,0.00,pywws,2013-02-09 11:13:00,
2013-02-09 11:18:00,39.2,35.9,30.00,North,0,0.0,0.0,88,0.00,,,0.00,pywws,2013-02-09 11:18:00,
2013-02-09 11:25:00,39.2,36.2,30.01,North,0,0.0,0.0,89,0.00,,,0.00,pywws,2013-02-09 11:25:00,
2013-02-09 11:33:00,39.7,36.8,30.00,NE,45,0.0,0.0,89,0.00,,,0.00,pywws,2013-02-09 11:33:00,
2013-02-09 11:38:00,39.9,36.7,30.00,SW,225,0.0,0.0,88,0.00,,,0.00,pywws,2013-02-09 11:38:00,
2013-02-09 11:43:00,40.1,36.5,30.00,NW,315,0.0,0.0,87,0.00,,,0.00,pywws,2013-02-09 11:43:00,
2013-02-09 11:49:00,39.7,35.9,30.00,North,0,0.0,0.0,86,0.00,,,0.00,pywws,2013-02-09 11:49:00,
2013-02-09 11:53:00,39.6,36.0,29.99,SW,225,0.0,0.0,87,0.00,,,0.00,pywws,2013-02-09 11:53:00,
2013-02-09 11:57:00,39.6,36.0,29.99,SW,225,0.0,0.0,87,0.00,,,0.00,pywws,2013-02-09 11:57:00,
2013-02-09 12:10:00,39.6,36.0,29.99,SW,225,0.0,0.0,87,0.00,,,0.00,pywws,2013-02-09 12:10:00,
2013-02-09 12:16:00,39.6,36.3,29.98,North,0,0.0,0.0,88,0.00,,,0.00,pywws,2013-02-09 12:16:00,
2013-02-09 12:21:00,39.9,36.4,29.98,SSW,202,0.0,0.0,87,0.00,,,0.00,pywws,2013-02-09 12:21:00,
2013-02-09 12:29:00,39.9,36.4,29.98,SW,225,0.0,0.0,87,0.00,,,0.00,pywws,2013-02-09 12:29:00,
2013-02-09 12:37:00,39.6,35.7,29.98,NNW,338,0.0,0.0,86,0.00,,,0.00,pywws,2013-02-09 12:37:00,
2013-02-09 12:45:00,39.6,35.7,29.98,NNW,338,0.0,0.0,86,0.00,,,0.00,pywws,2013-02-09 12:45:00,
2013-02-09 12:53:00,39.7,35.9,29.98,North,0,0.0,0.0,86,0.00,,,0.00,pywws,2013-02-09 12:53:00,
2013-02-09 12:57:00,39.7,35.9,29.97,NE,45,0.0,0.0,86,0.00,,,0.00,pywws,2013-02-09 12:57:00,
2013-02-09 13:01:00,39.7,35.9,29.98,North,0,0.0,0.0,86,0.00,,,0.00,pywws,2013-02-09 13:01:00,
2013-02-09 13:05:00,39.6,36.0,29.97,WSW,248,0.0,0.0,87,0.00,,,0.00,pywws,2013-02-09 13:05:00,
2013-02-09 13:13:00,39.6,36.0,29.97,WSW,248,0.0,0.0,87,0.00,,,0.00,pywws,2013-02-09 13:13:00,
2013-02-09 13:18:00,39.7,36.2,29.97,SE,135,0.0,0.0,87,0.00,,,0.00,pywws,2013-02-09 13:18:00,
2013-02-09 13:25:00,40.5,36.6,29.97,South,180,0.0,0.0,86,0.00,,,0.00,pywws,2013-02-09 13:25:00,
2013-02-09 13:29:00,40.3,36.1,29.96,East,90,0.0,0.0,85,0.00,,,0.00,pywws,2013-02-09 13:29:00,
2013-02-09 13:33:00,40.1,36.3,29.96,NE,45,0.0,0.0,86,0.00,,,0.00,pywws,2013-02-09 13:33:00,
2013-02-09 13:37:00,40.1,36.3,29.96,NE,45,0.0,0.0,86,0.00,,,0.00,pywws,2013-02-09 13:37:00,
2013-02-09 13:41:00,39.9,35.8,29.96,East,90,0.0,0.0,85,0.00,,,0.00,pywws,2013-02-09 13:41:00,
2013-02-09 13:45:00,39.6,36.0,29.96,SE,135,0.0,0.0,87,0.00,,,0.00,pywws,2013-02-09 13:45:00,
2013-02-09 13:49:00,39.4,36.1,29.95,SE,135,0.0,0.0,88,0.00,,,0.00,pywws,2013-02-09 13:49:00,
2013-02-09 13:53:00,39.0,36.1,29.95,NE,45,0.0,0.0,89,0.00,,,0.00,pywws,2013-02-09 13:53:00,
2013-02-09 13:57:00,38.8,35.9,29.96,North,0,0.0,0.0,89,0.00,,,0.00,pywws,2013-02-09 13:57:00,
2013-02-09 14:01:00,38.8,36.2,29.95,NW,315,0.0,0.0,90,0.00,,,0.00,pywws,2013-02-09 14:01:00,
2013-02-09 14:05:00,38.8,36.2,29.95,NW,315,0.0,0.0,90,0.00,,,0.00,pywws,2013-02-09 14:05:00,
2013-02-09 14:09:00,38.8,36.2,29.95,East,90,0.0,0.0,90,0.00,,,0.00,pywws,2013-02-09 14:09:00,
2013-02-09 14:13:00,38.8,36.2,29.95,East,90,0.0,0.0,90,0.00,,,0.00,pywws,2013-02-09 14:13:00,
2013-02-09 14:17:00,39.0,36.3,29.94,East,90,0.0,0.0,90,0.00,,,0.00,pywws,2013-02-09 14:17:00,
2013-02-09 14:21:00,39.0,36.3,29.94,SE,135,0.0,0.0,90,0.00,,,0.00,pywws,2013-02-09 14:21:00,
2013-02-09 14:25:00,38.8,36.2,29.94,SE,135,0.0,0.0,90,0.01,,,0.01,pywws,2013-02-09 14:25:00,
2013-02-09 14:29:00,38.8,36.2,29.94,SE,135,0.0,0.0,90,0.01,,,0.01,pywws,2013-02-09 14:29:00,
2013-02-09 14:33:00,38.7,36.0,29.94,South,180,0.0,0.0,90,0.01,,,0.01,pywws,2013-02-09 14:33:00,
2013-02-09 14:37:00,38.7,36.3,29.94,SE,135,0.0,0.0,91,0.01,,,0.01,pywws,2013-02-09 14:37:00,
2013-02-09 14:40:00,38.7,36.3,29.93,SE,135,0.0,0.0,91,0.01,,,0.01,pywws,2013-02-09 14:40:00,
2013-02-09 14:43:00,38.7,36.0,29.94,SW,225,0.0,0.0,90,0.01,,,0.01,pywws,2013-02-09 14:43:00,
2013-02-09 14:46:00,38.5,35.8,29.93,East,90,0.0,0.0,90,0.01,,,0.01,pywws,2013-02-09 14:46:00,
2013-02-09 14:49:00,38.7,36.3,29.93,NE,45,0.0,0.0,91,0.01,,,0.01,pywws,2013-02-09 14:49:00,
2013-02-09 14:53:00,38.8,36.4,29.93,West,270,0.0,0.0,91,0.01,,,0.01,pywws,2013-02-09 14:53:00,
2013-02-09 14:57:00,38.8,36.4,29.93,East,90,0.0,0.0,91,0.01,,,0.01,pywws,2013-02-09 14:57:00,
2013-02-09 15:01:00,38.8,36.4,29.93,NNW,338,0.0,0.0,91,0.01,,,0.01,pywws,2013-02-09 15:01:00,
2013-02-09 15:05:00,38.8,36.4,29.93,NNW,338,0.0,0.0,91,0.01,,,0.01,pywws,2013-02-09 15:05:00,
2013-02-09 15:09:00,38.7,36.3,29.93,East,90,0.0,0.0,91,0.01,,,0.01,pywws,2013-02-09 15:09:00,
2013-02-09 15:13:00,38.7,36.3,29.93,SE,135,0.0,0.0,91,0.01,,,0.01,pywws,2013-02-09 15:13:00,
2013-02-09 15:17:00,38.5,35.8,29.93,SE,135,0.0,0.0,90,0.01,,,0.01,pywws,2013-02-09 15:17:00,
2013-02-09 15:21:00,38.3,35.6,29.92,East,90,0.0,0.0,90,0.01,,,0.01,pywws,2013-02-09 15:21:00,
2013-02-09 15:25:00,38.5,36.1,29.92,South,180,0.0,0.0,91,0.00,,,0.01,pywws,2013-02-09 15:25:00,
2013-02-09 15:29:00,38.5,36.1,29.92,East,90,0.0,0.0,91,0.00,,,0.01,pywws,2013-02-09 15:29:00,
2013-02-09 15:33:00,38.5,36.1,29.92,North,0,0.0,0.0,91,0.00,,,0.01,pywws,2013-02-09 15:33:00,
2013-02-09 15:37:00,38.3,35.9,29.92,East,90,0.0,0.0,91,0.00,,,0.01,pywws,2013-02-09 15:37:00,
2013-02-09 15:41:00,38.5,36.1,29.92,South,180,0.0,0.0,91,0.00,,,0.01,pywws,2013-02-09 15:41:00,
2013-02-09 15:45:00,38.3,35.9,29.92,East,90,0.0,0.0,91,0.00,,,0.01,pywws,2013-02-09 15:45:00,
2013-02-09 15:49:00,38.3,35.9,29.92,South,180,0.0,0.0,91,0.00,,,0.01,pywws,2013-02-09 15:49:00,
2013-02-09 15:53:00,38.1,35.7,29.92,North,0,0.0,0.0,91,0.00,,,0.01,pywws,2013-02-09 15:53:00,
2013-02-09 15:57:00,38.1,35.7,29.91,East,90,0.0,0.0,91,0.00,,,0.01,pywws,2013-02-09 15:57:00,
2013-02-09 16:01:00,38.1,35.7,29.91,East,90,0.0,0.0,91,0.00,,,0.01,pywws,2013-02-09 16:01:00,
2013-02-09 16:05:00,38.1,35.7,29.91,East,90,0.0,0.0,91,0.00,,,0.01,pywws,2013-02-09 16:05:00,
2013-02-09 16:09:00,38.1,35.7,29.91,East,90,0.0,0.0,91,0.00,,,0.01,pywws,2013-02-09 16:09:00,
2013-02-09 16:13:00,38.1,35.7,29.91,East,90,0.0,0.0,91,0.00,,,0.01,pywws,2013-02-09 16:13:00,
2013-02-09 16:17:00,38.3,36.2,29.91,South,180,0.0,0.0,92,0.00,,,0.01,pywws,2013-02-09 16:17:00,
2013-02-09 16:21:00,38.5,36.1,29.91,SE,135,0.0,0.0,91,0.00,,,0.01,pywws,2013-02-09 16:21:00,
2013-02-09 16:25:00,38.3,35.6,29.91,SSE,158,0.0,0.0,90,0.00,,,0.01,pywws,2013-02-09 16:25:00,
2013-02-09 16:29:00,38.3,35.9,29.91,SE,135,0.0,0.0,91,0.00,,,0.01,pywws,2013-02-09 16:29:00,
2013-02-09 16:33:00,38.1,35.5,29.91,East,90,0.0,0.0,90,0.00,,,0.01,pywws,2013-02-09 16:33:00,
2013-02-09 16:37:00,38.1,35.7,29.90,East,90,0.0,0.0,91,0.00,,,0.01,pywws,2013-02-09 16:37:00,
2013-02-09 16:41:00,37.9,35.6,29.90,SW,225,0.0,0.0,91,0.00,,,0.01,pywws,2013-02-09 16:41:00,
2013-02-09 16:45:00,37.9,35.6,29.90,SE,135,0.0,0.0,91,0.00,,,0.01,pywws,2013-02-09 16:45:00,
2013-02-09 16:49:00,37.9,35.6,29.90,South,180,0.0,0.0,91,0.00,,,0.01,pywws,2013-02-09 16:49:00,
2013-02-09 16:53:00,37.9,35.6,29.90,SE,135,0.0,0.0,91,0.00,,,0.01,pywws,2013-02-09 16:53:00,
2013-02-09 16:57:00,37.8,35.4,29.90,NE,45,0.0,0.0,91,0.00,,,0.01,pywws,2013-02-09 16:57:00,
2013-02-09 17:01:00,37.8,35.4,29.90,East,90,0.0,0.0,91,0.00,,,0.01,pywws,2013-02-09 17:01:00,
2013-02-09 17:05:00,37.8,35.4,29.90,East,90,0.0,0.0,91,0.00,,,0.01,pywws,2013-02-09 17:05:00,
2013-02-09 17:08:00,37.6,35.2,29.90,East,90,0.0,0.0,91,0.00,,,0.01,pywws,2013-02-09 17:08:00,
2013-02-09 17:11:00,37.6,35.2,29.90,SE,135,0.0,0.0,91,0.00,,,0.01,pywws,2013-02-09 17:11:00,
2013-02-09 17:14:00,37.6,35.2,29.90,South,180,0.0,0.0,91,0.00,,,0.01,pywws,2013-02-09 17:14:00,
2013-02-09 17:17:00,37.6,35.2,29.90,South,180,0.0,0.0,91,0.00,,,0.01,pywws,2013-02-09 17:17:00,
2013-02-09 17:20:00,37.6,35.2,29.90,South,180,0.0,0.0,91,0.00,,,0.01,pywws,2013-02-09 17:20:00,
2013-02-09 17:23:00,37.6,35.2,29.90,SE,135,0.0,0.0,91,0.00,,,0.01,pywws,2013-02-09 17:23:00,
2013-02-09 17:26:00,37.6,35.2,29.90,East,90,0.0,0.0,91,0.00,,,0.01,pywws,2013-02-09 17:26:00,
2013-02-09 17:29:00,37.6,35.2,29.90,East,90,0.0,0.0,91,0.00,,,0.01,pywws,2013-02-09 17:29:00,
2013-02-09 17:32:00,37.6,35.2,29.90,SE,135,0.0,0.0,91,0.00,,,0.01,pywws,2013-02-09 17:32:00,
2013-02-09 17:35:00,37.6,35.2,29.90,SE,135,0.0,0.0,91,0.00,,,0.01,pywws,2013-02-09 17:35:00,
2013-02-09 17:38:00,37.6,35.2,29.90,SE,135,0.0,0.0,91,0.00,,,0.01,pywws,2013-02-09 17:38:00,
2013-02-09 17:41:00,37.6,35.2,29.90,South,180,0.0,0.0,91,0.00,,,0.01,pywws,2013-02-09 17:41:00,
2013-02-09 17:44:00,37.6,35.2,29.90,North,0,0.0,0.0,91,0.00,,,0.01,pywws,2013-02-09 17:44:00,
2013-02-09 17:47:00,37.6,35.2,29.89,South,180,0.0,0.0,91,0.00,,,0.01,pywws,2013-02-09 17:47:00,
2013-02-09 17:50:00,37.6,35.2,29.90,ENE,68,0.0,0.0,91,0.00,,,0.01,pywws,2013-02-09 17:50:00,
2013-02-09 17:53:00,37.6,35.5,29.89,South,180,0.0,0.0,92,0.00,,,0.01,pywws,2013-02-09 17:53:00,
2013-02-09 17:56:00,37.6,35.5,29.89,SE,135,0.0,0.0,92,0.00,,,0.01,pywws,2013-02-09 17:56:00,
2013-02-09 17:59:00,37.6,35.5,29.89,SSE,158,0.0,0.0,92,0.00,,,0.01,pywws,2013-02-09 17:59:00,
2013-02-09 18:02:00,37.6,35.5,29.89,East,90,0.0,0.0,92,0.00,,,0.01,pywws,2013-02-09 18:02:00,
2013-02-09 18:05:00,37.6,35.5,29.89,East,90,0.0,0.0,92,0.00,,,0.01,pywws,2013-02-09 18:05:00,
2013-02-09 18:08:00,37.6,35.5,29.89,SE,135,0.0,0.0,92,0.00,,,0.01,pywws,2013-02-09 18:08:00,
2013-02-09 18:11:00,37.6,35.5,29.89,SE,135,0.0,0.0,92,0.00,,,0.01,pywws,2013-02-09 18:11:00,
2013-02-09 18:14:00,37.6,35.5,29.89,SE,135,0.0,0.0,92,0.00,,,0.01,pywws,2013-02-09 18:14:00,
2013-02-09 18:17:00,37.6,35.5,29.89,NE,45,0.0,0.0,92,0.00,,,0.01,pywws,2013-02-09 18:17:00,
2013-02-09 18:20:00,37.6,35.5,29.89,ESE,112,0.0,0.0,92,0.00,,,0.01,pywws,2013-02-09 18:20:00,
2013-02-09 18:23:00,37.6,35.5,29.89,NE,45,0.0,0.0,92,0.00,,,0.01,pywws,2013-02-09 18:23:00,
2013-02-09 18:26:00,37.6,35.5,29.89,SE,135,0.0,0.0,92,0.00,,,0.01,pywws,2013-02-09 18:26:00,
2013-02-09 18:29:00,37.6,35.5,29.89,East,90,0.0,0.0,92,0.00,,,0.01,pywws,2013-02-09 18:29:00,
2013-02-09 18:32:00,37.6,35.5,29.88,SW,225,0.0,0.0,92,0.00,,,0.01,pywws,2013-02-09 18:32:00,
2013-02-09 18:35:00,37.6,35.5,29.88,South,180,0.0,0.0,92,0.00,,,0.01,pywws,2013-02-09 18:35:00,
2013-02-09 18:38:00,37.6,35.5,29.88,SE,135,0.0,0.0,92,0.00,,,0.01,pywws,2013-02-09 18:38:00,
2013-02-09 18:41:00,37.6,35.5,29.88,East,90,0.0,0.0,92,0.00,,,0.01,pywws,2013-02-09 18:41:00,
2013-02-09 18:44:00,37.6,35.5,29.88,SW,225,0.0,0.0,92,0.00,,,0.01,pywws,2013-02-09 18:44:00,
2013-02-09 18:47:00,37.6,35.5,29.88,SE,135,0.0,0.0,92,0.00,,,0.01,pywws,2013-02-09 18:47:00,
2013-02-09 18:50:00,37.6,35.5,29.88,SE,135,0.0,0.0,92,0.00,,,0.01,pywws,2013-02-09 18:50:00,
2013-02-09 18:53:00,37.6,35.5,29.87,East,90,0.0,0.0,92,0.00,,,0.01,pywws,2013-02-09 18:53:00,
2013-02-09 18:56:00,37.6,35.5,29.87,SE,135,0.0,0.0,92,0.00,,,0.01,pywws,2013-02-09 18:56:00,
2013-02-09 18:59:00,37.6,35.5,29.87,South,180,0.0,0.0,92,0.00,,,0.01,pywws,2013-02-09 18:59:00,
2013-02-09 19:02:00,37.6,35.5,29.87,NE,45,0.0,0.0,92,0.00,,,0.01,pywws,2013-02-09 19:02:00,
2013-02-09 19:04:00,37.6,35.5,29.87,NE,45,0.0,0.0,92,0.00,,,0.01,pywws,2013-02-09 19:04:00,
2013-02-09 19:07:00,37.6,35.5,29.87,NE,45,0.0,0.0,92,0.00,,,0.01,pywws,2013-02-09 19:07:00,
2013-02-09 19:10:00,37.4,35.3,29.87,NE,45,0.0,0.0,92,0.00,,,0.01,pywws,2013-02-09 19:10:00,
2013-02-09 19:13:00,37.4,35.3,29.87,East,90,0.0,0.0,92,0.00,,,0.01,pywws,2013-02-09 19:13:00,
2013-02-09 19:16:00,37.4,35.3,29.87,SE,135,0.0,0.0,92,0.00,,,0.01,pywws,2013-02-09 19:16:00,
2013-02-09 19:19:00,37.4,35.3,29.87,SE,135,0.0,0.0,92,0.00,,,0.01,pywws,2013-02-09 19:19:00,
2013-02-09 19:22:00,37.4,35.3,29.86,SE,135,0.0,0.0,92,0.00,,,0.01,pywws,2013-02-09 19:22:00,
2013-02-09 19:25:00,37.4,35.3,29.86,South,180,0.0,0.0,92,0.00,,,0.01,pywws,2013-02-09 19:25:00,
2013-02-09 19:28:00,37.4,35.3,29.86,NW,315,0.0,0.0,92,0.00,,,0.01,pywws,2013-02-09 19:28:00,
2013-02-09 19:31:00,37.4,35.3,29.86,West,270,0.0,0.0,92,0.00,,,0.01,pywws,2013-02-09 19:31:00,
2013-02-09 19:34:00,37.4,35.3,29.86,NE,45,0.0,0.0,92,0.00,,,0.01,pywws,2013-02-09 19:34:00,
2013-02-09 19:37:00,37.4,35.3,29.86,SE,135,0.0,0.0,92,0.00,,,0.01,pywws,2013-02-09 19:37:00,
2013-02-09 19:40:00,37.4,35.6,29.86,SW,225,0.0,0.0,93,0.00,,,0.01,pywws,2013-02-09 19:40:00,
2013-02-09 19:43:00,37.4,35.6,29.85,East,90,0.0,0.0,93,0.00,,,0.01,pywws,2013-02-09 19:43:00,
2013-02-09 19:46:00,37.4,35.6,29.85,SE,135,0.0,0.0,93,0.00,,,0.01,pywws,2013-02-09 19:46:00,
2013-02-09 19:49:00,37.4,35.6,29.85,SE,135,0.0,0.0,93,0.00,,,0.01,pywws,2013-02-09 19:49:00,
2013-02-09 19:52:00,37.4,35.6,29.85,NE,45,0.0,0.0,93,0.00,,,0.01,pywws,2013-02-09 19:52:00,
2013-02-09 19:55:00,37.4,35.6,29.85,SE,135,0.0,0.0,93,0.00,,,0.01,pywws,2013-02-09 19:55:00,
2013-02-09 19:58:00,37.4,35.6,29.85,East,90,0.0,0.0,93,0.00,,,0.01,pywws,2013-02-09 19:58:00,
2013-02-09 20:01:00,37.4,35.6,29.85,West,270,0.0,0.0,93,0.00,,,0.01,pywws,2013-02-09 20:01:00,
2013-02-09 20:04:00,37.4,35.6,29.85,West,270,0.0,0.0,93,0.00,,,0.01,pywws,2013-02-09 20:04:00,
2013-02-09 20:07:00,37.4,35.6,29.85,West,270,0.0,0.0,93,0.00,,,0.01,pywws,2013-02-09 20:07:00,
2013-02-09 20:10:00,37.4,35.3,29.85,SE,135,0.0,0.0,92,0.00,,,0.01,pywws,2013-02-09 20:10:00,
2013-02-09 20:13:00,37.4,35.3,29.85,West,270,0.0,0.0,92,0.00,,,0.01,pywws,2013-02-09 20:13:00,
2013-02-09 20:16:00,37.2,35.1,29.85,East,90,0.0,0.0,92,0.00,,,0.01,pywws,2013-02-09 20:16:00,
2013-02-09 20:19:00,37.2,35.4,29.84,South,180,0.0,0.0,93,0.00,,,0.01,pywws,2013-02-09 20:19:00,
2013-02-09 20:22:00,37.2,35.4,29.85,East,90,0.0,0.0,93,0.00,,,0.01,pywws,2013-02-09 20:22:00,
2013-02-09 20:25:00,37.2,35.4,29.84,East,90,0.0,0.0,93,0.00,,,0.01,pywws,2013-02-09 20:25:00,
2013-02-09 20:28:00,37.2,35.4,29.84,SE,135,0.0,0.0,93,0.00,,,0.01,pywws,2013-02-09 20:28:00,
2013-02-09 20:31:00,37.2,35.4,29.83,South,180,0.0,0.0,93,0.00,,,0.01,pywws,2013-02-09 20:31:00,
2013-02-09 20:34:00,37.2,35.4,29.83,South,180,0.0,0.0,93,0.00,,,0.01,pywws,2013-02-09 20:34:00,
2013-02-09 20:37:00,37.2,35.4,29.84,SE,135,0.0,0.0,93,0.00,,,0.01,pywws,2013-02-09 20:37:00,
2013-02-09 20:40:00,37.2,35.4,29.83,West,270,0.0,0.0,93,0.00,,,0.01,pywws,2013-02-09 20:40:00,
2013-02-09 20:43:00,37.2,35.4,29.83,SE,135,0.0,0.0,93,0.00,,,0.01,pywws,2013-02-09 20:43:00,
2013-02-09 20:46:00,37.2,35.4,29.83,SE,135,0.0,0.0,93,0.00,,,0.01,pywws,2013-02-09 20:46:00,
2013-02-09 20:49:00,37.2,35.4,29.83,SE,135,0.0,0.0,93,0.00,,,0.01,pywws,2013-02-09 20:49:00,
2013-02-09 20:52:00,37.2,35.4,29.83,South,180,0.0,0.0,93,0.00,,,0.01,pywws,2013-02-09 20:52:00,
2013-02-09 20:55:00,37.2,35.4,29.82,East,90,0.0,0.0,93,0.00,,,0.01,pywws,2013-02-09 20:55:00,
2013-02-09 20:58:00,37.2,35.4,29.82,SE,135,0.0,0.0,93,0.00,,,0.01,pywws,2013-02-09 20:58:00,
2013-02-09 21:01:00,37.2,35.4,29.82,West,270,0.0,0.0,93,0.00,,,0.01,pywws,2013-02-09 21:01:00,
2013-02-09 21:04:00,37.2,35.4,29.82,West,270,0.0,0.0,93,0.00,,,0.01,pywws,2013-02-09 21:04:00,
2013-02-09 21:07:00,37.2,35.4,29.82,West,270,0.0,0.0,93,0.00,,,0.01,pywws,2013-02-09 21:07:00,
2013-02-09 21:10:00,37.2,35.7,29.82,West,270,0.0,0.0,94,0.00,,,0.01,pywws,2013-02-09 21:10:00,
2013-02-09 21:13:00,37.2,35.7,29.82,SE,135,0.0,0.0,94,0.00,,,0.01,pywws,2013-02-09 21:13:00,
2013-02-09 21:16:00,37.2,35.7,29.81,WNW,292,0.0,0.0,94,0.00,,,0.01,pywws,2013-02-09 21:16:00,
2013-02-09 21:19:00,37.2,35.7,29.81,East,90,0.0,0.0,94,0.00,,,0.01,pywws,2013-02-09 21:19:00,
2013-02-09 21:22:00,37.2,35.7,29.81,South,180,0.0,0.0,94,0.00,,,0.01,pywws,2013-02-09 21:22:00,
2013-02-09 21:25:00,37.2,35.7,29.81,East,90,0.0,0.0,94,0.00,,,0.01,pywws,2013-02-09 21:25:00,
2013-02-09 21:28:00,37.2,35.7,29.81,South,180,0.0,0.0,94,0.00,,,0.01,pywws,2013-02-09 21:28:00,
2013-02-09 21:31:00,37.2,35.7,29.81,SE,135,0.0,0.0,94,0.00,,,0.01,pywws,2013-02-09 21:31:00,
2013-02-09 21:34:00,37.2,35.7,29.80,SE,135,0.0,0.0,94,0.00,,,0.01,pywws,2013-02-09 21:34:00,
2013-02-09 21:37:00,37.2,35.7,29.80,SE,135,0.0,0.0,94,0.00,,,0.01,pywws,2013-02-09 21:37:00,
2013-02-09 21:40:00,37.2,35.7,29.80,South,180,0.0,0.0,94,0.00,,,0.01,pywws,2013-02-09 21:40:00,
2013-02-09 21:43:00,37.2,35.7,29.80,WNW,292,0.0,0.0,94,0.00,,,0.01,pywws,2013-02-09 21:43:00,
2013-02-09 21:46:00,37.2,35.7,29.80,South,180,0.0,0.0,94,0.00,,,0.01,pywws,2013-02-09 21:46:00,
2013-02-09 21:49:00,37.2,35.7,29.79,SW,225,0.0,0.0,94,0.00,,,0.01,pywws,2013-02-09 21:49:00,
2013-02-09 21:52:00,37.2,35.7,29.79,SE,135,0.0,0.0,94,0.00,,,0.01,pywws,2013-02-09 21:52:00,
2013-02-09 21:55:00,37.4,35.8,29.79,South,180,0.0,0.0,94,0.00,,,0.01,pywws,2013-02-09 21:55:00,
2013-02-09 21:58:00,37.4,35.8,29.79,East,90,0.0,0.0,94,0.00,,,0.01,pywws,2013-02-09 21:58:00,
2013-02-09 22:01:00,37.2,35.7,29.79,SE,135,0.0,0.0,94,0.00,,,0.01,pywws,2013-02-09 22:01:00,
2013-02-09 22:14:00,37.4,35.8,29.78,SE,135,0.0,0.0,94,0.00,,,0.01,pywws,2013-02-09 22:14:00,
2013-02-09 22:20:00,37.4,35.8,29.78,East,90,0.0,0.0,94,0.00,,,0.01,pywws,2013-02-09 22:20:00,
2013-02-09 22:25:00,37.4,35.8,29.78,North,0,0.0,0.0,94,0.00,,,0.01,pywws,2013-02-09 22:25:00,
2013-02-09 22:30:00,37.6,36.0,29.78,East,90,0.0,0.0,94,0.00,,,0.01,pywws,2013-02-09 22:30:00,
2013-02-09 22:35:00,37.6,36.0,29.77,North,0,0.0,0.0,94,0.00,,,0.01,pywws,2013-02-09 22:35:00,
2013-02-09 22:40:00,37.8,36.2,29.77,SE,135,0.0,0.0,94,0.00,,,0.01,pywws,2013-02-09 22:40:00,
2013-02-09 22:45:00,37.8,36.5,29.77,SE,135,0.0,0.0,95,0.00,,,0.01,pywws,2013-02-09 22:45:00,
2013-02-09 22:50:00,37.8,36.2,29.77,SE,135,0.0,0.0,94,0.00,,,0.01,pywws,2013-02-09 22:50:00,
2013-02-09 22:56:00,37.9,36.4,29.76,East,90,0.0,0.0,94,0.00,,,0.01,pywws,2013-02-09 22:56:00,
2013-02-09 23:01:00,37.9,36.4,29.76,East,90,0.0,0.0,94,0.00,,,0.01,pywws,2013-02-09 23:01:00,
2013-02-09 23:07:00,37.9,36.4,29.76,SW,225,0.0,0.0,94,0.00,,,0.01,pywws,2013-02-09 23:07:00,
2013-02-09 23:08:00,37.9,36.4,29.76,SE,135,0.0,0.0,94,0.00,,,0.01,pywws,2013-02-09 23:08:00,
2013-02-09 23:13:00,37.9,36.4,29.76,SE,135,0.0,0.0,94,0.00,,,0.01,pywws,2013-02-09 23:13:00,
2013-02-09 23:19:00,37.9,36.4,29.76,East,90,0.0,0.0,94,0.00,,,0.01,pywws,2013-02-09 23:19:00,
2013-02-09 23:24:00,38.1,36.5,29.75,East,90,0.0,0.0,94,0.00,,,0.01,pywws,2013-02-09 23:24:00,
2013-02-09 23:29:00,38.1,36.5,29.75,East,90,0.0,0.0,94,0.00,,,0.01,pywws,2013-02-09 23:29:00,
2013-02-09 23:35:00,38.1,36.5,29.75,NE,45,0.0,0.0,94,0.00,,,0.01,pywws,2013-02-09 23:35:00,
2013-02-09 23:40:00,38.1,36.5,29.75,NW,315,0.0,0.0,94,0.00,,,0.01,pywws,2013-02-09 23:40:00,
2013-02-09 23:45:00,38.1,36.5,29.74,SE,135,0.0,0.0,94,0.00,,,0.01,pywws,2013-02-09 23:45:00,
2013-02-09 23:50:00,38.1,36.5,29.74,East,90,0.0,0.0,94,0.00,,,0.01,pywws,2013-02-09 23:50:00,
2013-02-09 23:56:00,38.1,36.8,29.74,NE,45,0.0,0.0,95,0.00,,,0.01,pywws,2013-02-09 23:56:00,